Flag for U.S.A. Weather past 2 weeks in Chattanooga, Tennessee, U.S.A.

Now
70 °F

Passing clouds.


Feels Like: 67 °F
Forecast: 73 / 93 °F
Wind: No wind

Location: Lovell Field

Current Time: Aug 21, 2014 at 6:34:21 AM

Latest Report: Aug 21, 2014 at 5:53 AM


Visibility: 10 mi

Pressure: 30.09 "Hg

Humidity: 90%

Dew point: 67 °F

Location of ChattanoogaLocation

Historic Weather in Chattanooga — Graph

°F

Chattanooga temperature yesterday

Maximum temperature yesterday: 94 °F (at 4:53 PM)
Minimum temperature yesterday: 73 °F (at 4:53 AM)
Average temperature yesterday: 79 °F

Past Weeks' High & Low Weather Summary

 TemperatureHumidityPressure
High95 °F (Aug 7, 3:53 PM)93% (Aug 19, 12:53 AM)30.14 "Hg (Aug 19, 12:53 AM)
Low62 °F (Aug 14, 4:53 AM)32% (Aug 15, 1:53 PM)29.84 "Hg (Aug 12, 3:53 PM)
Average77 °F71%29.97 "Hg
* Reported Aug 6 4:53 AM — Aug 21 4:53 AM, Chattanooga, Weather by CustomWeather, © 2014

Note: Actual official high and low records may vary slightly from our data, if they occured in-between our weather recording intervals... More about our weather records

Advertising

Chattanooga weather history for previous 24 hours

 ConditionsComfort  
Time TempWeatherWind HumidityBarometerVisibility
4:53 AM
Aug 21
71 °FClear.No wind90%30.07 "Hg10 mi
3:53 AM71 °FClear.No wind90%30.07 "Hg10 mi
2:53 AM71 °FClear.No wind90%30.08 "Hg10 mi
1:53 AM72 °FClear.No wind87%30.10 "Hg10 mi
12:53 AM72 °FClear.3 mph87%30.13 "Hg10 mi
11:53 PM
Aug 20
73 °FMostly cloudy.3 mph81%30.12 "Hg10 mi
10:53 PM73 °FPartly cloudy.6 mph84%30.13 "Hg9 mi
9:53 PM74 °FLight rain. Mostly cloudy.5 mph85%30.11 "Hg10 mi
9:03 PM75 °FThunderstorms. Broken clouds.No wind79%30.14 "Hg10 mi
8:53 PM74 °FThundershowers. Broken clouds.5 mph82%30.11 "Hg10 mi
7:53 PM75 °FLight rain. Cloudy.6 mph79%30.07 "Hg10 mi
6:53 PM76 °FCloudy.5 mph77%30.01 "Hg10 mi
5:53 PM75 °FStrong thunderstorms. Fog.22 mph64%30.05 "Hg4 mi
4:53 PM94 °FBroken clouds.14 mph46%29.95 "Hg10 mi
3:53 PM93 °FScattered clouds.7 mph49%29.96 "Hg10 mi
2:53 PM93 °FScattered clouds.10 mph50%29.98 "Hg10 mi
1:53 PM91 °FScattered clouds.7 mph56%30.01 "Hg10 mi
12:53 PM88 °FScattered clouds.3 mph63%30.02 "Hg10 mi
11:53 AM87 °FPartly sunny.6 mph63%30.02 "Hg10 mi
10:53 AM85 °FScattered clouds.No wind68%30.01 "Hg10 mi
9:53 AM81 °FScattered clouds.3 mph74%30.00 "Hg10 mi
8:53 AM76 °FScattered clouds.No wind85%30.00 "Hg9 mi
7:53 AM74 °FPassing clouds.No wind88%29.98 "Hg9 mi
6:53 AM73 °FPassing clouds.No wind88%29.96 "Hg9 mi
Weather by CustomWeather, © 2014

See weather overviewHow to use our weather pages